Location: Chełm
(51.1339°N, 23.4725°E)
Time: 04:10:00
(UTC+01:00)

ISS - Pass Details

Date: 28 January 2019
Orbit: 403 x 411 km, 51.6° (Epoch: 20 February)

Event Time Altitude Azimuth Distance (km) Brightness Sun altitude
Rises 17:31:51 0° 244° (WSW) 2,329 1.8 -12.9°
Reaches altitude 10° 17:33:56 10° 241° (WSW) 1,472 0.3 -13.3°
Maximum altitude 17:37:12 61° 160° (SSE) 469 -3.6 -13.7°
Enters shadow 17:38:44 28° 89° (E) 806 -2.9 -14.0°
